STARLINK-32693 (62437 NORAD) Tracking and Keplerian Element Data

This shows tracking and keplerian element data for the satellite.

Feedback or suggestion? Click here.




ElementValue
Catalog62437
NameSTARLINK-32693
Epoch Orbit684
Epoch Day35.16668981
Epoch Year2025
RAAN32.1313
Inclination53.1609
Eccentricity0.0001096
Argument of Perigee96.3017
Mean Anonmoly174.4963
Mean Motion15.42534408
Decay Rate-0.01440332
L11 62437U 24251F 25035.16668981 -.01440332 00000+0 -36007-1 0 9991
L22 62437 53.1609 32.1313 0001096 96.3017 174.4963 15.42534408 6841



Live tracking and technical data element details for STARLINK-32693 (NORAD 62437). STARLINK-32693 can be tracked NOW for your location showing map with azimuth and elevation plus other details from your city location.







IsCatalogInMostPopularTable: catalog: 62437, numindb: 17
Update: records affected: 1



GetName: 62437 STARLINK-32693

Hit Count: updated at: Mon, 19 May 2025 03:21:11 GMT